Regional Weather Roundup
Issued by NWS Sterling, VA

Home | Current Version | Previous Version | Graphics & Text | Print | Product List | Glossary On
Versions: 1 2 3 4 5 6 7 8 9 10 11 12 13 14 15 16 17 18 19 20 21 22 23 24 25 26 27 28 29 30 31 32 33 34 35 36 37 38 39 40 41 42 43 44 45 46 47 48 49 50
000
ASUS41 KLWX 290110
RWRLWX

REGIONAL WEATHER ROUNDUP
NATIONAL WEATHER SERVICE BALTIMORE MD/WASHINGTON DC
800 PM EST SUN DEC 28 2014

Note: "FAIR" indicates few or no clouds below 12,000 feet
with no significant weather and/or obstructions to visibility.
 TC=TEMPERATURE CELSIUS

 * =Non NWS site. Station does not report precipitation (e.g. rain,
    snow, etc.), thunder, or fog.

DCZ001-MDZ009-015-VAZ040>042-051-053>054-290200-
WASHINGTON METRO

CITY           SKY/WX    TMP DP  RH WIND       PRES   REMARKS
WASHINGTON NAT CLOUDY    54  46  74 N7        30.03F
DULLES         CLOUDY    49  43  80 N5        30.05R
ANDREWS AFB    CLOUDY    50  46  87 NW5       30.03R
FT BELVOIR     CLOUDY    48  48 100 W3        30.05R
QUANTICO       CLOUDY    48  45  89 CALM      30.05R
COLLEGE PARK*  CLOUDY    48  48 100 CALM      30.02F
LEESBURG*      CLOUDY    50  45  81 N6        30.04F
MANASSAS*      CLOUDY    50  48  93 N7        30.05R
GAITHERSBURG*  CLOUDY    46  45  93 CALM      30.07F

$$

MDZ006>007-011-014-290200-
BALTIMORE METRO

CITY           SKY/WX    TMP DP  RH WIND       PRES   REMARKS
BWI AIRPORT    CLOUDY    50  46  86 CALM      30.03R
MD SCIENCE CTR   N/A     52  44  74 MISG      30.03R
MARTIN STATE   CLOUDY    48  48 100 CALM      30.05R
ANNAPOLIS      CLOUDY    49  47  93 NW6       30.03R
FORT MEADE*    CLOUDY    46  46 100 CALM      30.05S

$$

MDZ012-015-019>023-290200-
MARYLAND EASTERN SHORE

CITY           SKY/WX    TMP DP  RH WIND       PRES   REMARKS
OCEAN CITY     CLOUDY    49  46  90 CALM      30.01F
SALISBURY      CLOUDY    52  47  83 CALM      30.01F
BAY BRIDGE AP*   N/A     46  45  93 CALM      30.03S
CAMBRIDGE*     CLOUDY    52  48  87 CALM      30.02R
EASTON*        LGT RAIN  48  48 100 CALM      30.06R

$$

MDZ017>025-290200-
SOUTHERN MARYLAND

CITY           SKY/WX    TMP DP  RH WIND       PRES   REMARKS
PATUXENT RIVER CLOUDY    48  45  89 CALM      30.01S
ST INIGOES     CLOUDY    50  43  77 CALM      30.01S
LEONARDTOWN*   CLOUDY    48  45  87 CALM      30.03S

$$

MDZ003>005-290200-
NORTH CENTRAL MARYLAND

CITY           SKY/WX    TMP DP  RH WIND       PRES   REMARKS
FREDERICK*     CLOUDY    50  39  66 VRB5      30.08
HAGERSTOWN APT CLOUDY    45  34  65 N10       30.06R
WESTMINSTER*   CLOUDY    46  39  76 NW8       30.04R

$$

MDZ501>502-290200-
WESTERN MARYLAND

CITY           SKY/WX    TMP DP  RH WIND       PRES   REMARKS
OAKLAND*       FOG       30 N/A N/A CALM      30.04R VSB 1/4
CUMBERLAND*    MOCLDY    43  34  70 NW8       30.12R

$$

VAZ025>031-290200-
SHENANDOAH VALLEY

CITY           SKY/WX    TMP DP  RH WIND       PRES   REMARKS
WINCHESTER*    CLOUDY    50  36  57 NW6       30.06R
FRONT ROYAL*   CLOUDY    46  43  87 N5        30.05R
LURAY*         CLOUDY    50  50 100 NE8       30.02R
NEW MARKET*    CLOUDY    49  45  88 N5        30.01R
STAUNTON*      CLOUDY    49  46  90 CALM      30.03R
WAYNESBORO*    CLOUDY    51  45  79 W6        30.03R

$$

WVZ021-048>050-054>055-290200-
EASTERN WEST VIRGINIA PANHANDLE

CITY           SKY/WX    TMP DP  RH WIND       PRES   REMARKS
MARTINSBURG    CLOUDY    47  34  60 N10       30.06R
PETERSBURG*    CLOUDY    50  37  61 N5        30.06R

$$

VAZ036>039-050-290200-
CENTRAL FOOTHILLS

CITY           SKY/WX    TMP DP  RH WIND       PRES   REMARKS
CHARLOTTESVILL CLOUDY    48  45  89 CALM      30.02R
CULPEPER*      CLOUDY    48  46  93 CALM      30.04R
ORANGE*        CLOUDY    46  45  93 CALM      30.04R
GORDONSVILLE*  CLOUDY    46  46  99 CALM      30.02R
WARRENTON*     CLOUDY    49  49 100 N3        30.03R

$$

VAZ055>057-290200-
NORTH AND CENTRAL PIEDMONT

CITY           SKY/WX    TMP DP  RH WIND       PRES   REMARKS
FREDERICKSBRG* CLOUDY    49  49 100 CALM      30.02S FOG
STAFFORD*      CLOUDY    48  32  53 CALM      30.07S

$$

NCZ024-NYZ072-PAZ021-071-VAZ022-071-290200-
OTHER REGIONAL OBSERVATIONS

CITY           SKY/WX    TMP DP  RH WIND       PRES   REMARKS
NEW YORK CITY  CLOUDY    48  32  53 NW8       30.01S
PHILADELPHIA   CLOUDY    51  43  74 W7        30.02R
PITTSBURGH     CLOUDY    36  30  79 NW6       30.11R
ROANOKE        CLOUDY    52  45  77 W12       30.07R
RICHMOND       CLOUDY    54  51  90 CALM      30.02R
RALEIGH        MOCLDY    57  54  89 SW5       30.06R

$$

ANZ530>537-290200-
MARINE OBSERVATIONS

STATION/POSITION TIME  TEMP    WIND        PRES
                       AIR SEA DIR/SP/G
                 (UTC) (F)     (DEG/KT/KT) (MB)
THOMAS PT LIGHT  0100   47 43  340/  3/  3 1018.2R
BALT KEY BRIDGE  0100   50     290/  6/  6 1016.9R
COVE POINT       0100   49      CALM  /  1 1016.6R
LEWISETTA        0100   49 45     CALM     1016.2R
SOLOMONS ISLAND  0100      44                N/A
PINEY POINT      0100          100/  2/  2   N/A

$$



USA.gov is the U.S. government's official web portal to all federal, state and local government web resources and services.